Volver al catálogo

CZ-6A DEB

ActivoPO
NORAD 61369·DEBRIS·🇨🇳 China

Lanzado Aug 6, 2024 desde Taiyuan Satellite Launch Center

Loading…

Próximos Pases (próximas 24 horas)

TLE

ActualizadoSource: Space-Track

Época: Sep 13, 2026, 11:22 UTC

1 61369U 24140WJ  26256.47394287  .00000274  00000-0  11149-3 0  9993
2 61369  88.9850 263.1408 0021647 217.1795 142.7899 14.24584832106289

Sigue CZ-6A DEB en tiempo real con AllMySat

Download on the App Store